CAPE
1092 1043 1284 1234 1223 1305 1563 1543 1242 1074 1364 1563 1158 1173 1351 1064 1211 896 484 619 456 324 244 343 294 366 429 232 515 817 618 720 1573 1654 2061 1013 912 1610 1664 1802 1650 1482 736 708 508 480 487 434 348 223 321 609 358 198 138 86 73 40 28 17 10 0 0 0 0 0 0 0 0 0 0 0 0 0 0 0 0 0 0 0 0 0 0 1 2
956 719 957 1149 1023 838 910 968 1173 798 1160 1006 1438 1271 1150 1018 1004 640 681 682 777 660 492 522 440 431 415 362 439 357 545 748 1317 1366 1814 1056 756 1469 1713 1608 1616 1420 1116 755 558 488 562 489 302 127 413 599 533 360 236 186 155 177 87 12 1 2 0 0 0 0 0 0 0 0 0 0 0 0 0 0 0 0 0 0 0 0 0 0 2
891 945 944 781 859 557 738 867 980 689 986 1174 829 987 1090 1226 859 411 671 669 614 1008 777 907 614 294 383 302 262 533 462 716 1227 1752 1381 1788 876 1141 1639 1686 1599 1310 1129 1294 930 566 646 516 356 181 274 487 710 610 410 329 309 224 119 42 32 11 0 0 0 0 0 0 0 0 0 0 0 0 0 0 0 0 0 0 0 0 0 0 0
1031 837 812 1284 912 776 792 997 1100 1379 1420 1142 980 996 1057 1122 787 799 517 665 844 967 1010 841 818 517 501 387 330 153 516 651 1152 676 1393 1353 969 677 1169 1347 1492 1347 1241 1073 1232 944 703 595 532 318 164 166 737 881 634 529 474 387 204 99 64 14 1 5 0 0 0 0 0 0 0 0 0 0 0 0 0 0 0 0 0 0 0 0 0
1142 1337 1005 990 1174 1057 1313 1002 1346 1157 1343 1065 1012 969 1068 1151 1068 1022 1340 1089 936 1230 1035 922 898 740 484 481 243 268 867 336 694 578 1020 875 1016 581 934 1165 1044 904 1213 1233 851 986 740 653 534 294 275 267 321 824 635 607 626 570 371 167 101 40 17 11 5 0 0 0 0 0 0 0 0 0 0 0 0 0 0 0 0 0 0 0 0
1474 1516 1381 1299 1166 1107 1249 1429 1299 1224 1215 1212 1315 1333 1179 905 927 1016 1205 1462 1398 1451 1223 1282 851 999 1078 598 278 420 227 179 539 814 904 808 787 702 758 814 844 743 977 1280 1123 844 736 610 476 328 434 312 198 116 590 80 310 700 536 264 160 84 73 26 0 0 0 0 0 0 0 0 0 0 0 0 0 0 0 0 0 0 0 0 0
1257 1586 1418 1064 1154 1409 1533 1461 1440 1281 1156 967 972 1283 1211 1084 1157 1437 1284 1194 1317 1257 988 1160 803 745 866 359 573 253 409 194 133 386 772 634 807 1044 804 816 1214 772 657 760 1194 1018 904 835 662 410 397 276 180 247 193 147 133 496 607 506 256 192 114 70 16 0 0 0 0 0 0 0 0 0 0 0 0 0 0 0 0 0 0 0 0
1484 1408 1143 1115 921 1185 1456 1492 1447 1314 1260 1305 1232 1086 1290 1344 1332 1436 1342 1253 1300 1459 1223 998 805 997 1079 575 640 501 432 539 598 786 826 744 834 852 596 554 631 647 1467 1026 711 850 962 1196 886 617 385 271 191 376 300 292 148 156 773 633 451 299 271 130 80 14 0 0 0 0 0 0 0 0 0 0 0 0 0 0 0 0 0 0 0
1462 1511 1340 1072 1367 1247 1296 1339 1375 1213 1303 1357 1191 1240 1325 1313 1105 1248 1141 1008 900 1015 1243 1312 927 803 1170 1004 686 491 569 820 750 585 492 693 730 925 806 624 566 1137 881 989 1431 777 1157 1228 1097 885 674 464 226 350 200 169 241 137 655 687 713 480 388 282 133 141 62 7 0 0 0 0 0 0 0 0 0 0 0 0 0 0 0 0 0
1362 1484 1340 1009 1174 1238 1252 1286 1294 1359 1442 1446 1289 1294 1331 1384 1394 1246 909 982 1123 1212 1032 1157 782 764 751 818 790 660 506 1044 609 823 529 564 762 820 700 665 728 892 1026 1131 1068 1229 982 1015 969 720 778 524 400 432 318 183 347 222 313 785 816 702 542 434 388 240 202 131 46 21 1 0 0 0 0 0 0 0 0 0 0 0 0 0 0
1423 1655 1535 1491 1011 1062 1162 1035 1198 1382 1382 1323 1169 1255 1220 1449 1204 1345 1122 1248 1174 1236 1338 845 1123 681 858 762 803 716 743 868 1411 1166 777 658 773 883 759 707 828 810 961 936 1103 1023 1017 932 839 656 732 755 812 618 598 473 569 491 301 307 847 746 760 739 502 426 340 268 182 107 23 4 1 0 0 0 0 0 0 0 0 0 0 0 0
1225 1408 1402 1412 1050 902 1196 1149 1105 1280 1349 1315 1306 1291 1473 1217 1251 1045 1276 1254 1168 1158 1006 974 889 781 587 660 755 1019 976 717 1009 991 1051 1038 916 687 534 559 960 1126 1051 1062 1098 1213 1368 1232 1001 669 584 473 624 485 376 843 1143 1112 742 736 731 610 874 884 681 803 579 399 327 206 84 25 5 3 0 0 0 0 0 0 0 0 0 0 0
1195 1211 1227 1392 1339 1289 1203 1345 1316 1098 1330 1380 1094 1218 1253 1350 1347 1272 1225 1264 1163 995 1215 944 918 727 713 547 865 969 1059 871 1139 1287 1202 828 798 869 782 721 700 867 1319 1127 991 969 1020 930 631 716 586 538 406 344 474 468 434 1037 770 715 722 856 811 837 772 783 846 734 522 375 206 121 30 11 2 0 1 1 0 0 0 0 0 0 0
860 833 1034 913 891 1328 1316 1223 1354 1338 1297 1238 1189 1013 1219 1302 1203 1345 1163 1144 1135 913 604 913 985 703 717 712 610 617 866 900 839 1076 1134 1032 702 584 706 907 928 880 913 883 1023 1055 692 535 305 256 330 498 413 517 491 456 374 865 748 804 875 675 713 851 840 820 759 658 619 648 519 263 193 82 23 40 17 1 1 1 0 0 0 0 0
578 716 764 594 948 969 993 1230 1056 1313 1267 1195 1289 1186 1345 1193 1124 1153 1094 899 903 945 863 715 652 766 790 465 606 649 473 758 760 752 1056 1105 1152 634 568 616 771 875 663 763 657 670 577 403 387 534 498 469 466 695 514 571 546 575 367 494 501 554 697 962 1009 760 719 667 572 561 507 536 302 270 146 105 37 6 4 2 1 0 0 0 0
85 14 156 457 805 818 713 874 880 1115 776 826 874 1265 1225 1024 1269 967 844 668 642 882 796 607 577 628 497 495 622 556 401 532 474 692 800 645 700 301 350 203 577 595 573 730 799 364 300 365 517 478 490 467 493 624 437 605 659 572 420 371 99 200 526 753 983 721 673 718 689 685 509 601 500 532 390 246 202 112 30 5 1 1 0 0 0
97 99 136 339 477 563 702 633 590 670 774 570 766 1221 1030 1223 1302 903 624 1133 444 712 761 460 765 468 554 566 673 751 485 633 539 574 736 582 243 383 616 549 486 521 592 469 695 318 380 273 403 451 384 544 599 522 461 369 323 202 72 0 0 0 0 96 643 736 749 750 703 682 539 613 536 477 615 464 358 303 100 27 3 1 2 1 66
30 86 189 349 640 506 674 365 671 686 545 532 410 620 1089 1051 895 1013 864 592 821 728 758 719 730 760 624 602 988 632 472 532 495 354 447 417 442 415 501 553 608 726 502 467 526 409 300 479 452 462 419 319 242 195 0 256 178 15 376 30 132 0 10 42 139 500 708 636 606 710 646 670 664 555 585 459 332 176 259 95 37 22 160 164 182
171 189 190 263 511 416 521 379 407 569 538 598 513 408 322 394 515 801 438 685 603 630 654 515 896 502 595 855 848 848 1078 686 313 312 248 258 532 416 292 356 413 738 593 508 403 386 471 462 462 356 274 255 258 214 108 126 0 0 0 105 139 126 133 164 142 227 505 582 653 724 714 693 652 577 447 559 460 349 356 254 176 152 173 192 188
430 104 220 288 445 343 217 157 443 182 180 251 233 389 554 670 930 864 831 1224 955 830 647 620 678 699 629 1002 606 946 1113 742 603 684 242 247 174 146 240 356 231 399 568 625 585 512 352 477 343 258 271 263 221 153 0 0 0 0 0 0 77 95 105 113 123 175 354 697 764 619 563 497 490 297 444 549 424 318 426 416 423 372 317 258 166
29 102 164 92 74 148 246 167 39 141 41 118 202 366 618 845 1069 1127 1245 1146 1217 1290 980 738 780 743 733 780 757 704 709 650 761 710 622 221 100 93 71 261 336 306 194 315 562 630 426 182 14 44 131 57 41 0 0 0 0 0 0 0 77 117 126 154 140 278 423 498 553 700 740 762 636 502 383 391 464 467 413 369 372 415 369 368 236
387 257 341 92 255 161 1 0 85 37 9 80 132 296 419 407 495 685 1033 1108 1216 1149 1044 1002 934 906 863 930 786 585 456 614 482 687 582 490 147 49 37 78 39 121 252 255 389 530 365 86 0 0 0 0 0 0 0 0 0 0 51 123 112 134 142 164 155 136 285 450 479 531 941 919 777 537 382 368 349 304 211 189 209 259 230 274 249
232 171 33 5 3 19 48 0 35 252 159 64 67 53 244 412 432 407 649 822 807 804 784 806 789 762 686 672 677 585 590 462 458 623 601 429 121 120 7 1 45 166 10 0 0 0 0 0 0 0 0 0 0 0 0 0 0 0 0 5 24 36 51 36 14 13 8 18 61 105 172 187 140 220 291 280 280 212 217 285 316 246 164 105 154
137 85 80 0 3 0 39 286 306 145 20 14 0 2 0 2 83 259 372 574 691 751 838 909 540 678 995 874 528 798 855 617 532 554 676 573 90 2 0 0 0 1 0 0 0 0 0 0 0 0 0 0 0 0 0 0 0 0 0 0 0 5 7 5 3 0 0 0 0 0 0 0 0 0 0 0 20 10 0 0 0 0 0 0 1
38 40 107 137 151 125 129 138 99 62 131 32 0 0 0 1 1 8 71 106 227 251 147 270 533 470 551 496 336 809 728 940 892 861 780 501 249 151 0 0 0 0 0 0 0 0 0 0 0 0 0 0 0 0 0 0 0 0 0 0 0 0 0 0 0 0 0 0 0 0 0 0 0 0 0 0 0 0 0 0 0 0 0 0 0
6 15 1 0 2 0 6 22 1 0 0 0 0 0 0 0 0 0 0 0 10 8 9 6 0 4 96 7 138 403 509 898 1044 385 359 416 366 13 0 0 0 0 0 0 1 2 0 0 0 0 0 0 0 0 0 0 0 0 0 0 0 0 0 0 0 0 0 0 0 0 0 0 0 0 0 0 0 0 0 0 0 0 0 0 0
2 0 0 1 43 15 0 0 0 0 0 0 0 0 0 0 0 0 0 0 0 0 0 0 0 0 0 3 0 0 15 568 657 164 117 374 98 15 21 3 2 0 0 0 0 0 0 0 0 0 0 0 0 0 0 0 0 0 0 0 0 0 0 0 0 0 0 0 0 0 0 0 0 0 0 0 0 0 0 0 0 0 0 0 0
0 0 0 0 0 0 0 0 0 0 0 0 0 0 0 0 0 0 0 0 0 0 0 0 0 0 0 0 0 0 0 0 11 177 43 23 91 132 43 5 0 4 0 0 0 0 0 0 0 0 0 0 0 0 0 0 0 0 0 0 0 0 0 0 0 0 0 0 0 0 0 0 0 0 0 0 0 0 0 0 0 0 0 0 0
3 3 0 0 0 0 0 0 0 0 0 0 0 0 0 0 0 0 0 0 0 0 0 0 0 0 0 0 0 0 0 0 0 0 0 412 31 201 133 82 244 4 0 0 0 0 0 0 0 0 0 0 0 0 0 0 0 0 0 0 0 0 0 0 0 0 0 0 0 0 0 0 0 0 0 0 0 0 0 0 0 0 0 0 0
16 5 42 9 0 0 0 0 0 0 0 0 0 0 0 0 0 0 0 0 0 0 0 0 0 0 0 0 0 0 0 0 0 0 0 0 9 12 2 9 5 35 8 0 0 0 0 0 0 0 0 0 0 0 0 0 0 0 0 0 0 0 0 0 0 0 0 0 0 0 0 0 0 0 0 0 0 0 0 0 0 0 0 0 0
23 44 15 0 2 4 0 0 0 0 0 0 0 0 0 0 0 0 0 0 0 0 0 0 0 0 18 10 4 0 0 0 0 0 0 0 145 0 1 0 1 19 0 0 0 0 0 0 0 0 0 0 0 0 0 0 0 0 0 0 0 0 0 0 0 0 0 0 0 0 0 0 0 0 0 0 0 0 0 0 0 0 0 0 0
110 74 14 5 1 0 0 0 0 0 0 0 0 0 3 0 0 0 0 0 0 0 0 0 0 0 0 0 0 5 11 0 0 0 0 0 0 6 0 1 8 5 0 0 0 0 0 0 0 0 0 0 0 0 0 0 0 0 0 0 0 0 0 0 0 0 0 0 0 0 0 0 0 0 0 0 0 0 0 0 0 0 0 0 0
127 89 19 10 3 3 0 0 0 10 8 2 1 4 3 8 0 0 0 0 0 0 0 0 0 0 0 0 0 0 0 4 0 0 0 0 0 0 0 0 0 0 0 0 0 0 0 0 0 0 0 0 0 0 0 0 0 0 0 0 0 0 0 0 0 0 0 0 0 0 0 0 0 0 0 0 0 0 0 0 0 0 0 0 0
68 40 9 31 16 6 0 0 4 4 5 15 17 1 0 3 3 0 0 6 0 0 0 0 0 0 0 0 0 0 0 0 0 0 0 0 0 0 0 0 0 0 0 0 0 0 0 0 0 0 0 0 0 0 0 0 0 0 0 0 0 0 0 0 0 0 0 0 0 0 0 0 0 0 0 0 0 0 0 0 0 0 0 0 0
84 57 8 63 18 3 15 6 0 0 4 25 118 40 10 1 2 12 1 3 0 0 0 0 0 0 0 0 0 0 0 0 0 0 9 0 6 0 0 0 0 0 0 0 0 0 0 0 0 0 0 0 0 0 0 0 0 0 0 0 0 0 0 0 0 0 0 0 0 0 0 0 0 0 0 0 0 0 0 0 0 0 0 0 0
8 88 53 8 7 6 13 2 3 2 4 156 153 48 0 40 54 12 34 36 2 0 0 0 0 0 3 0 0 0 0 0 0 0 0 0 0 0 0 5 0 14 40 6 41 0 0 0 0 0 0 0 0 0 0 0 0 0 0 0 0 0 0 0 0 0 0 0 0 0 0 0 0 0 0 0 0 0 0 0 0 0 0 0 0
1 64 24 3 11 9 116 6 1 3 30 69 130 185 307 201 125 181 93 14 163 102 1 31 0 21 1 66 0 0 0 0 0 14 0 0 0 0 0 0 0 11 1 7 6 1 0 0 0 0 0 0 0 0 0 0 0 0 0 0 0 0 0 0 0 0 0 0 0 0 0 0 0 0 0 0 0 0 0 0 0 0 0 0 0
163 152 9 0 0 7 24 15 11 31 66 136 161 186 274 415 449 377 285 351 238 304 312 226 1 59 24 78 131 6 0 90 62 59 40 27 14 0 0 0 0 0 0 0 0 0 0 4 0 0 0 0 0 0 0 0 0 0 0 0 0 0 0 0 0 0 0 0 0 0 0 0 0 0 0 0 0 0 0 0 0 0 0 0 0
454 450 175 119 162 117 31 82 81 71 90 184 245 372 416 400 603 535 596 667 532 536 592 424 264 320 263 244 247 298 89 72 181 43 74 12 0 0 0 0 0 0 0 0 0 45 6 0 0 11 0 0 0 0 0 0 0 0 0 0 0 0 0 0 0 0 0 0 0 0 0 0 0 0 0 0 0 0 0 0 0 0 0 0 0
395 272 237 190 423 304 300 242 233 482 374 294 220 361 447 653 822 822 749 774 721 687 749 726 646 579 476 414 358 356 310 189 197 237 88 9 4 0 0 0 0 0 0 0 0 0 0 0 6 1 0 4 0 0 0 0 0 0 0 0 0 0 0 0 0 0 0 0 0 0 0 0 0 0 0 0 0 0 0 0 0 0 0 0 0
552 398 362 310 357 200 176 419 532 464 279 114 57 60 40 652 874 825 872 756 490 450 450 543 353 99 11 38 17 32 319 15 81 129 132 105 176 149 74 0 0 0 0 0 0 0 0 0 4 4 4 1 4 5 0 15 0 0 0 0 0 0 0 0 0 0 0 0 0 0 0 0 0 0 0 0 0 0 0 0 0 0 0 0 0
979 947 776 658 495 294 589 445 415 124 129 334 206 412 548 439 720 910 638 447 344 97 60 394 277 214 123 269 296 0 70 280 104 0 0 0 0 0 0 0 0 2 0 0 0 0 0 0 2 9 0 0 0 31 0 3 0 0 0 0 0 0 0 0 0 0 0 0 0 0 0 0 0 0 0 0 0 0 0 0 0 0 0 0 0
746 894 877 677 459 314 50 188 238 2 16 131 289 499 528 434 513 700 580 321 375 270 184 303 373 382 254 447 132 152 406 316 356 228 0 0 0 0 0 0 0 0 0 0 0 0 0 0 0 0 0 0 0 0 0 0 0 0 0 0 0 0 0 0 0 0 0 0 0 0 0 0 0 0 0 0 0 0 0 0 0 0 0 0 0
649 328 741 856 631 618 397 395 387 273 67 53 3 2 0 279 468 395 368 425 411 369 194 125 403 479 386 271 359 277 352 322 292 168 0 0 0 0 0 0 0 0 0 0 0 0 0 0 0 0 0 0 0 0 0 0 0 0 0 0 0 0 0 0 0 0 0 0 0 0 0 0 0 0 0 0 0 0 0 0 0 0 0 0 0
878 882 864 936 778 600 486 383 552 520 203 273 317 0 0 0 428 406 88 680 386 523 275 95 128 197 129 35 227 345 467 378 210 80 0 0 0 0 0 0 0 0 0 0 0 0 0 0 0 0 0 0 0 0 0 0 0 0 0 0 0 0 0 0 0 0 0 0 0 0 0 0 0 0 0 0 0 0 0 0 0 0 0 0 0
794 586 516 518 528 561 474 399 386 308 73 1 0 0 0 495 546 77 9 699 510 260 178 178 217 224 219 16 1 298 543 319 267 388 296 0 0 0 0 0 0 0 0 0 0 0 0 0 0 0 0 0 0 0 0 0 0 0 0 0 0 0 0 0 0 0 0 0 0 0 0 0 0 0 0 0 0 0 0 0 0 0 0 0 0
508 436 552 578 563 552 529 552 456 149 259 0 0 406 611 593 194 0 0 420 797 755 422 319 551 525 351 253 6 247 651 291 265 305 129 70 0 0 0 0 0 0 0 0 0 0 0 0 0 0 0 0 0 0 0 0 0 0 0 0 0 0 0 0 0 0 0 0 0 0 0 0 0 0 0 0 0 0 0 0 0 0 0 0 0
601 589 659 542 562 508 511 543 516 562 593 296 400 417 268 0 157 272 68 413 787 729 668 382 586 508 226 153 66 370 439 358 272 129 0 66 124 138 26 7 0 0 0 0 0 0 0 0 0 0 0 0 0 0 0 0 0 0 0 0 0 0 0 0 0 0 0 0 0 0 0 0 0 0 0 0 0 0 0 0 0 0 0 0 0
628 638 560 529 580 525 543 492 508 501 486 451 253 0 116 305 332 410 314 552 631 522 489 206 7 0 0 0 269 156 133 0 0 0 0 0 57 94 92 14 0 0 0 0 0 0 0 0 0 0 0 0 0 0 0 0 0 0 0 0 0 0 0 0 0 0 0 0 0 0 0 0 0 0 0 0 0 0 0 0 0 1 0 0 0
814 778 590 584 558 583 602 593 482 293 261 147 0 39 250 40 0 309 379 434 26 127 150 50 0 0 0 0 18 83 0 0 0 0 0 0 86 133 70 83 0 0 0 0 0 0 0 0 0 0 0 0 0 0 0 0 0 0 0 0 0 0 0 0 0 0 0 0 0 4 0 0 0 0 0 0 0 0 0 0 0 0 0 0 0
712 540 464 266 342 367 373 399 228 183 47 0 0 0 0 0 0 0 52 113 122 72 102 18 0 0 0 0 0 0 0 0 0 0 0 0 4 36 72 26 0 0 0 0 0 0 0 0 0 0 0 0 0 0 0 0 0 0 0 0 0 0 0 0 0 0 0 0 0 0 0 0 0 0 0 0 0 0 0 0 0 0 0 0 0
Wind_Speed
13 11 14 16 14 11 12 12 11 10 10 12 12 14 14 13 14 17 15 9 13 18 15 15 14 7 11 9 13 17 26 16 14 17 20 21 21 23 25 24 24 22 25 25 22 23 23 23 21 20 19 20 20 20 19 nan nan nan nan nan nan nan nan nan nan nan nan nan nan nan nan nan nan nan nan nan nan nan nan nan nan nan nan nan nan
14 10 7 16 16 13 12 12 10 10 12 12 13 12 11 11 12 15 10 9 12 16 13 11 9 8 11 10 13 17 25 12 12 17 19 22 22 22 26 27 27 26 24 26 25 24 25 24 22 20 21 20 20 21 20 18 18 18 nan nan nan nan nan nan nan nan nan nan nan nan nan nan nan nan nan nan nan nan nan nan nan nan nan nan nan
12 10 12 18 16 13 13 10 11 12 13 15 12 12 10 9 7 9 11 11 11 11 12 12 12 9 9 9 11 16 23 15 9 18 19 21 23 22 25 30 29 30 31 28 25 25 24 25 24 21 21 19 19 21 21 20 19 19 20 nan nan nan nan nan nan nan nan nan nan nan nan nan nan nan nan nan nan nan nan nan nan nan nan nan nan
16 14 16 18 17 12 10 11 10 11 12 15 15 12 10 8 8 8 9 10 10 11 11 10 10 9 6 10 12 5 22 14 8 18 17 20 25 24 26 28 30 31 30 29 27 26 25 26 26 23 21 21 21 21 21 21 20 21 20 nan nan nan nan nan nan nan nan nan nan nan nan nan nan nan nan nan nan nan nan nan nan nan nan nan nan
13 15 17 15 15 16 13 11 11 10 9 10 11 10 9 8 5 6 8 11 11 11 9 8 9 8 8 9 12 9 21 16 9 15 16 22 25 26 23 22 23 27 27 27 27 27 23 25 25 25 23 22 22 21 21 21 21 22 22 21 20 nan nan nan nan nan nan nan nan nan nan nan nan nan nan nan nan nan nan nan nan nan nan nan nan
11 11 14 15 15 12 12 13 13 13 10 8 8 8 8 7 5 6 6 8 10 11 8 9 9 9 10 11 14 14 17 14 10 16 20 26 23 20 13 15 17 18 20 24 26 28 28 26 27 26 26 23 22 22 20 nan 23 23 23 23 22 nan nan nan nan nan nan nan nan nan nan nan nan nan nan nan nan nan nan nan nan nan nan nan nan
13 11 14 15 13 12 13 13 13 14 12 10 8 8 7 7 7 6 7 7 8 9 7 6 5 10 13 15 14 17 19 22 23 17 19 22 21 16 11 12 13 15 18 18 22 26 27 28 30 30 28 25 24 22 21 21 23 24 24 24 23 22 21 nan nan nan nan nan nan nan nan nan nan nan nan nan nan nan nan nan nan nan nan nan nan
12 15 13 15 13 12 13 13 14 13 13 12 10 8 8 8 8 7 7 7 6 7 7 5 5 9 14 17 14 17 18 19 17 14 16 19 18 16 14 11 12 14 15 16 16 18 22 24 26 28 29 27 24 23 22 23 23 23 23 24 24 23 22 20 nan nan nan nan nan nan nan nan nan nan nan nan nan nan nan nan nan nan nan nan nan
14 16 15 14 11 15 13 14 13 12 11 11 10 7 7 7 6 6 7 7 5 7 7 8 7 11 16 17 13 16 14 14 18 13 14 17 17 18 16 13 12 14 12 13 13 15 17 20 21 23 24 26 25 23 23 25 25 23 24 22 21 21 20 20 20 20 nan nan nan nan nan nan nan nan nan nan nan nan nan nan nan nan nan nan nan
14 16 16 13 12 13 14 14 13 12 11 9 9 10 8 7 7 8 8 7 6 7 9 9 10 13 14 16 13 11 11 13 16 12 14 16 18 17 16 14 16 14 11 10 11 13 13 15 18 19 20 23 25 24 26 25 27 25 24 23 21 19 19 19 19 19 19 20 nan nan nan nan nan nan nan nan nan nan nan nan nan nan nan nan nan
15 15 14 13 14 12 12 13 12 12 11 9 10 10 9 8 6 8 7 6 7 8 10 10 12 14 14 13 11 10 12 14 14 15 15 15 17 18 15 14 14 15 15 11 12 12 13 13 13 14 16 20 23 24 25 26 26 25 22 22 22 18 17 17 18 19 18 19 20 21 nan nan nan nan nan nan nan nan nan nan nan nan nan nan nan
17 17 14 15 15 13 11 11 13 12 11 12 10 11 11 10 9 8 7 7 7 9 9 10 13 13 13 11 10 8 12 14 15 16 14 14 15 15 15 13 12 13 15 14 14 13 12 13 14 15 18 21 25 31 34 27 26 25 22 19 20 19 18 15 15 20 19 19 19 21 nan nan nan nan nan nan nan nan nan nan nan nan nan nan nan
18 18 17 17 15 14 12 11 12 12 12 12 12 10 12 10 10 10 7 8 12 9 8 10 13 13 12 13 8 8 14 14 15 15 15 15 13 11 12 15 15 13 15 15 14 14 14 13 17 18 19 17 18 22 19 15 20 23 22 18 16 17 16 15 16 18 20 19 19 19 20 20 nan nan nan nan nan nan nan nan nan nan nan nan nan
20 19 21 20 16 15 13 11 12 12 11 12 13 11 13 12 11 10 9 10 11 9 9 8 11 11 12 11 7 9 11 14 14 14 14 16 18 14 14 13 13 14 14 14 14 15 15 16 16 15 15 15 15 15 18 20 19 23 21 18 17 15 14 13 15 15 20 18 19 18 21 19 19 nan nan nan nan nan nan nan nan nan nan nan nan
20 20 20 21 20 18 16 14 13 11 11 12 11 14 14 12 13 11 11 11 10 10 11 11 11 10 11 11 10 9 10 13 13 14 13 15 17 19 19 12 14 14 14 13 13 14 15 14 12 15 16 15 12 14 15 18 18 21 21 20 19 18 16 16 15 20 24 26 23 18 18 18 20 20 21 22 nan nan nan nan nan nan nan nan nan
nan nan 22 19 17 18 18 17 16 13 13 11 10 13 14 14 13 13 12 11 10 10 11 11 10 10 10 10 9 9 13 12 13 13 13 15 18 22 18 15 15 15 14 14 15 17 16 14 13 14 14 12 12 12 11 12 12 16 24 24 nan 20 20 21 20 23 24 22 18 17 20 19 18 21 23 22 23 25 nan nan nan nan nan nan nan
nan nan 22 19 17 15 17 18 16 15 15 14 12 13 14 15 16 16 13 12 12 10 11 11 11 11 10 9 11 9 12 15 15 15 13 15 20 22 19 17 16 15 16 15 15 19 19 18 15 14 16 16 15 15 12 10 8 10 nan nan nan nan nan nan 25 28 25 20 21 22 19 16 20 21 22 24 24 26 25 nan nan nan nan nan nan
nan nan 21 19 17 16 15 18 16 16 14 13 12 14 17 19 16 16 16 13 13 13 12 12 11 13 11 9 11 11 12 14 14 15 13 15 17 20 21 20 16 18 17 16 19 19 18 18 16 16 17 19 19 19 nan 14 13 nan 11 nan 16 nan nan nan 26 26 26 23 25 21 12 12 19 23 21 23 25 25 24 nan nan nan 23 25 27
22 21 20 19 18 17 16 15 17 16 16 14 13 12 16 21 18 16 16 16 15 15 15 13 13 12 12 10 11 11 12 13 13 15 17 14 16 20 21 23 20 19 21 20 22 22 20 19 20 19 20 20 20 20 19 18 nan nan nan 17 17 19 19 21 23 25 24 23 22 21 18 18 22 24 22 22 23 23 20 23 22 21 20 21 24
21 21 20 19 18 18 16 13 12 16 16 16 16 14 16 18 19 19 18 18 17 16 16 15 15 12 11 14 11 12 11 12 13 13 16 19 21 18 18 21 22 22 22 23 24 24 23 21 21 20 20 20 21 20 nan nan nan nan nan nan nan nan 20 20 23 22 21 21 22 22 21 20 20 22 24 20 26 23 20 17 16 16 16 17 18
nan 19 18 nan nan 17 17 17 nan 14 nan 19 17 17 17 17 19 20 19 20 17 15 17 16 15 14 13 14 13 11 12 11 12 14 16 18 20 nan nan 19 20 21 22 22 22 22 23 23 nan nan 21 nan nan nan nan nan nan nan nan nan nan 22 22 22 22 21 21 23 24 24 23 20 23 24 28 23 19 14 14 16 17 16 14 12 12
18 17 17 nan 18 20 nan nan nan nan nan nan 18 17 17 19 19 19 20 21 19 18 18 17 16 14 15 15 13 11 11 11 13 12 14 14 17 nan nan nan nan 18 18 21 24 23 25 nan nan nan nan nan nan nan nan nan nan nan nan 23 24 24 23 21 21 20 21 22 28 31 32 31 30 28 25 21 20 18 16 15 15 12 11 11 12
17 17 nan nan nan nan nan nan nan 17 18 nan nan nan 18 18 20 21 22 23 21 21 20 19 17 15 17 16 15 13 11 13 14 13 13 14 18 16 nan nan nan 19 nan nan nan nan nan nan nan nan nan nan nan nan nan nan nan nan nan nan nan nan nan nan nan nan nan nan nan 30 31 30 30 31 31 30 30 30 29 27 25 23 21 18 17
16 nan nan nan nan nan nan 18 18 18 nan nan nan nan nan nan nan 21 22 22 21 20 19 19 17 17 16 17 15 12 12 15 15 17 14 17 nan nan nan nan nan nan nan nan nan nan nan nan nan nan nan nan nan nan nan nan nan nan nan nan nan nan nan nan nan nan nan nan nan nan nan nan nan nan nan nan nan nan nan nan nan nan nan nan nan
nan nan 15 17 18 19 20 20 nan nan 18 nan nan nan nan nan nan nan nan 23 22 21 21 19 17 17 19 18 16 14 14 15 15 17 16 16 16 14 nan nan nan nan nan nan nan nan nan nan nan nan nan nan nan nan nan nan nan nan nan nan nan nan nan nan nan nan nan nan nan nan nan nan nan nan nan nan nan nan nan nan nan nan nan nan nan
nan nan nan nan nan nan nan nan nan nan nan nan nan nan nan nan nan nan nan nan nan nan nan nan nan nan nan nan 17 16 16 16 16 18 18 17 14 nan nan nan nan nan nan nan nan nan nan nan nan nan nan nan nan nan nan nan nan nan nan nan nan nan nan nan nan nan nan nan nan nan nan nan nan nan nan nan nan nan nan nan nan nan nan nan nan
nan nan nan nan nan nan nan nan nan nan nan nan nan nan nan nan nan nan nan nan nan nan nan nan nan nan nan nan nan nan nan 17 18 17 16 17 nan nan nan nan nan nan nan nan nan nan nan nan nan nan nan nan nan nan nan nan nan nan nan nan nan nan nan nan nan nan nan nan nan nan nan nan nan nan nan nan nan nan nan nan nan nan nan nan nan
nan nan nan nan nan nan nan nan nan nan nan nan nan nan nan nan nan nan nan nan nan nan nan nan nan nan nan nan nan nan nan nan nan 17 nan nan nan 20 nan nan nan nan nan nan nan nan nan nan nan nan nan nan nan nan nan nan nan nan nan nan nan nan nan nan nan nan nan nan nan nan nan nan nan nan nan nan nan nan nan nan nan nan nan nan nan
nan nan nan nan nan nan nan nan nan nan nan nan nan nan nan nan nan nan nan nan nan nan nan nan nan nan nan nan nan nan nan nan nan nan nan 16 nan 17 16 nan 17 nan nan nan nan nan nan nan nan nan nan nan nan nan nan nan nan nan nan nan nan nan nan nan nan nan nan nan nan nan nan nan nan nan nan nan nan nan nan nan nan nan nan nan nan
nan nan nan nan nan nan nan nan nan nan nan nan nan nan nan nan nan nan nan nan nan nan nan nan nan nan nan nan nan nan nan nan nan nan nan nan nan nan nan nan nan nan nan nan nan nan nan nan nan nan nan nan nan nan nan nan nan nan nan nan nan nan nan nan nan nan nan nan nan nan nan nan nan nan nan nan nan nan nan nan nan nan nan nan nan
nan nan nan nan nan nan nan nan nan nan nan nan nan nan nan nan nan nan nan nan nan nan nan nan nan nan nan nan nan nan nan nan nan nan nan nan 15 nan nan nan nan nan nan nan nan nan nan nan nan nan nan nan nan nan nan nan nan nan nan nan nan nan nan nan nan nan nan nan nan nan nan nan nan nan nan nan nan nan nan nan nan nan nan nan nan
15 nan nan nan nan nan nan nan nan nan nan nan nan nan nan nan nan nan nan nan nan nan nan nan nan nan nan nan nan nan nan nan nan nan nan nan nan nan nan nan nan nan nan nan nan nan nan nan nan nan nan nan nan nan nan nan nan nan nan nan nan nan nan nan nan nan nan nan nan nan nan nan nan nan nan nan nan nan nan nan nan nan nan nan nan
15 nan nan nan nan nan nan nan nan nan nan nan nan nan nan nan nan nan nan nan nan nan nan nan nan nan nan nan nan nan nan nan nan nan nan nan nan nan nan nan nan nan nan nan nan nan nan nan nan nan nan nan nan nan nan nan nan nan nan nan nan nan nan nan nan nan nan nan nan nan nan nan nan nan nan nan nan nan nan nan nan nan nan nan nan
nan nan nan nan nan nan nan nan nan nan nan nan nan nan nan nan nan nan nan nan nan nan nan nan nan nan nan nan nan nan nan nan nan nan nan nan nan nan nan nan nan nan nan nan nan nan nan nan nan nan nan nan nan nan nan nan nan nan nan nan nan nan nan nan nan nan nan nan nan nan nan nan nan nan nan nan nan nan nan nan nan nan nan nan nan
nan nan nan nan nan nan nan nan nan nan nan nan 22 nan nan nan nan nan nan nan nan nan nan nan nan nan nan nan nan nan nan nan nan nan nan nan nan nan nan nan nan nan nan nan nan nan nan nan nan nan nan nan nan nan nan nan nan nan nan nan nan nan nan nan nan nan nan nan nan nan nan nan nan nan nan nan nan nan nan nan nan nan nan nan nan
nan nan nan nan nan nan nan nan nan nan nan 23 22 nan nan nan nan nan nan nan nan nan nan nan nan nan nan nan nan nan nan nan nan nan nan nan nan nan nan nan nan nan nan nan nan nan nan nan nan nan nan nan nan nan nan nan nan nan nan nan nan nan nan nan nan nan nan nan nan nan nan nan nan nan nan nan nan nan nan nan nan nan nan nan nan
nan nan nan nan nan nan 23 nan nan nan nan nan 21 21 22 23 22 24 nan nan 21 21 nan nan nan nan nan nan nan nan nan nan nan nan nan nan nan nan nan nan nan nan nan nan nan nan nan nan nan nan nan nan nan nan nan nan nan nan nan nan nan nan nan nan nan nan nan nan nan nan nan nan nan nan nan nan nan nan nan nan nan nan nan nan nan
24 24 nan nan nan nan nan nan nan nan nan 21 20 20 22 21 22 23 23 24 23 21 23 22 nan nan nan nan 26 nan nan nan nan nan nan nan nan nan nan nan nan nan nan nan nan nan nan nan nan nan nan nan nan nan nan nan nan nan nan nan nan nan nan nan nan nan nan nan nan nan nan nan nan nan nan nan nan nan nan nan nan nan nan nan nan
25 27 27 23 23 21 nan nan nan nan nan 22 21 21 24 21 22 24 22 25 24 24 24 23 21 22 23 23 26 27 nan nan 31 nan nan nan nan nan nan nan nan nan nan nan nan nan nan nan nan nan nan nan nan nan nan nan nan nan nan nan nan nan nan nan nan nan nan nan nan nan nan nan nan nan nan nan nan nan nan nan nan nan nan nan nan
25 26 25 22 23 21 22 22 25 26 26 25 25 21 23 19 22 23 23 24 25 26 27 25 24 25 24 26 26 27 29 30 32 33 nan nan nan nan nan nan nan nan nan nan nan nan nan nan nan nan nan nan nan nan nan nan nan nan nan nan nan nan nan nan nan nan nan nan nan nan nan nan nan nan nan nan nan nan nan nan nan nan nan nan nan
24 23 23 23 24 24 23 26 30 33 33 33 nan nan nan 14 21 22 22 23 26 30 32 30 32 nan nan nan nan nan 26 nan nan 37 35 33 29 28 nan nan nan nan nan nan nan nan nan nan nan nan nan nan nan nan nan nan nan nan nan nan nan nan nan nan nan nan nan nan nan nan nan nan nan nan nan nan nan nan nan nan nan nan nan nan nan
29 27 26 26 24 26 32 36 37 36 33 29 28 24 25 21 23 26 29 31 32 nan nan 27 30 32 33 30 31 nan nan 28 31 nan nan nan nan nan nan nan nan nan nan nan nan nan nan nan nan nan nan nan nan nan nan nan nan nan nan nan nan nan nan nan nan nan nan nan nan nan nan nan nan nan nan nan nan nan nan nan nan nan nan nan nan
24 25 26 29 32 32 nan 38 39 nan nan 20 19 23 22 28 27 29 33 31 29 28 31 32 31 32 35 33 32 37 36 32 27 35 nan nan nan nan nan nan nan nan nan nan nan nan nan nan nan nan nan nan nan nan nan nan nan nan nan nan nan nan nan nan nan nan nan nan nan nan nan nan nan nan nan nan nan nan nan nan nan nan nan nan nan
23 25 28 31 32 33 35 34 36 38 nan nan nan nan nan 32 34 31 30 32 31 32 34 35 34 36 39 39 37 38 36 34 35 35 nan nan nan nan nan nan nan nan nan nan nan nan nan nan nan nan nan nan nan nan nan nan nan nan nan nan nan nan nan nan nan nan nan nan nan nan nan nan nan nan nan nan nan nan nan nan nan nan nan nan nan
27 29 32 35 37 36 36 39 38 39 37 32 28 nan nan nan 33 32 nan 34 35 37 39 nan 39 40 42 nan 43 42 38 39 39 nan nan nan nan nan nan nan nan nan nan nan nan nan nan nan nan nan nan nan nan nan nan nan nan nan nan nan nan nan nan nan nan nan nan nan nan nan nan nan nan nan nan nan nan nan nan nan nan nan nan nan nan
33 34 35 36 38 39 40 42 40 35 nan nan nan nan nan 36 38 nan nan 36 37 38 39 41 41 43 43 nan nan 45 45 44 40 38 39 nan nan nan nan nan nan nan nan nan nan nan nan nan nan nan nan nan nan nan nan nan nan nan nan nan nan nan nan nan nan nan nan nan nan nan nan nan nan nan nan nan nan nan nan nan nan nan nan nan nan
37 37 37 38 40 42 42 42 39 36 36 nan nan 39 38 40 40 nan nan 36 37 38 38 40 42 43 44 46 nan 47 50 48 44 40 43 nan nan nan nan nan nan nan nan nan nan nan nan nan nan nan nan nan nan nan nan nan nan nan nan nan nan nan nan nan nan nan nan nan nan nan nan nan nan nan nan nan nan nan nan nan nan nan nan nan nan
40 40 42 42 42 43 43 40 41 40 43 41 40 40 41 nan 44 41 nan 35 36 36 38 38 39 41 43 44 nan 53 52 51 47 50 nan nan 47 49 nan nan nan nan nan nan nan nan nan nan nan nan nan nan nan nan nan nan nan nan nan nan nan nan nan nan nan nan nan nan nan nan nan nan nan nan nan nan nan nan nan nan nan nan nan nan nan
43 43 42 41 40 40 40 40 40 40 42 42 42 nan 43 44 46 40 37 36 34 37 40 44 nan nan nan nan 49 55 55 nan nan nan nan nan nan nan nan nan nan nan nan nan nan nan nan nan nan nan nan nan nan nan nan nan nan nan nan nan nan nan nan nan nan nan nan nan nan nan nan nan nan nan nan nan nan nan nan nan nan nan nan nan nan
41 41 41 39 40 42 43 40 39 39 41 47 nan nan 47 nan nan 41 40 39 nan 47 49 nan nan nan nan nan nan nan nan nan nan nan nan nan nan 46 nan nan nan nan nan nan nan nan nan nan nan nan nan nan nan nan nan nan nan nan nan nan nan nan nan nan nan nan nan nan nan nan nan nan nan nan nan nan nan nan nan nan nan nan nan nan nan
40 42 43 44 46 48 47 47 46 47 nan nan nan nan nan nan nan nan nan 44 47 nan 53 nan nan nan nan nan nan nan nan nan nan nan nan nan nan nan nan nan nan nan nan nan nan nan nan nan nan nan nan nan nan nan nan nan nan nan nan nan nan nan nan nan nan nan nan nan nan nan nan nan nan nan nan nan nan nan nan nan nan nan nan nan nan
Wind_Direction
297 303 309 304 300 295 288 283 279 280 281 275 262 259 265 267 269 271 261 245 249 237 222 216 209 240 273 253 273 273 264 258 251 265 263 266 269 273 278 271 263 263 280 280 278 275 275 274 271 267 264 268 267 265 263 nan nan nan nan nan nan nan nan nan nan nan nan nan nan nan nan nan nan nan nan nan nan nan nan nan nan nan nan nan nan
290 285 285 289 288 285 281 289 295 282 277 277 273 270 270 273 290 294 283 250 250 255 250 249 246 222 269 282 273 268 281 281 273 264 268 270 266 269 276 269 263 257 266 279 278 278 277 277 276 271 272 276 275 272 269 269 266 263 nan nan nan nan nan nan nan nan nan nan nan nan nan nan nan nan nan nan nan nan nan nan nan nan nan nan nan
287 288 315 296 294 298 302 307 308 303 299 289 291 282 278 281 291 284 252 248 249 245 247 237 233 237 230 243 258 276 286 290 283 277 269 267 269 270 269 268 262 259 256 253 275 278 283 282 283 277 278 279 280 275 273 272 269 266 263 nan nan nan nan nan nan nan nan nan nan nan nan nan nan nan nan nan nan nan nan nan nan nan nan nan nan
310 324 305 295 297 298 292 301 301 303 299 300 301 296 293 289 293 311 302 282 272 266 263 257 248 242 223 245 256 286 282 284 274 275 271 269 275 270 264 261 262 263 261 262 266 282 289 288 285 281 278 275 280 278 277 274 270 268 265 nan nan nan nan nan nan nan nan nan nan nan nan nan nan nan nan nan nan nan nan nan nan nan nan nan nan
293 305 302 295 290 296 301 300 298 296 295 296 303 300 294 292 283 271 277 287 292 282 279 271 265 250 224 226 231 220 269 281 251 271 271 257 245 253 257 268 271 272 272 269 268 267 275 286 282 281 278 275 277 281 276 277 273 271 267 265 262 nan nan nan nan nan nan nan nan nan nan nan nan nan nan nan nan nan nan nan nan nan nan nan nan
303 301 292 291 289 298 301 299 301 301 306 314 306 302 300 299 289 277 273 278 277 277 273 269 269 258 242 209 217 237 237 252 270 252 254 261 251 257 270 287 289 279 274 272 266 263 256 262 278 277 277 274 274 271 282 nan 269 270 268 264 261 nan nan nan nan nan nan nan nan nan nan nan nan nan nan nan nan nan nan nan nan nan nan nan nan
316 299 297 292 297 300 305 307 306 310 318 310 322 326 323 310 307 310 299 300 286 286 285 282 253 238 241 228 218 236 234 240 250 259 275 285 291 288 280 267 268 282 287 277 273 269 265 265 264 269 273 270 268 271 268 268 266 272 268 266 261 257 255 nan nan nan nan nan nan nan nan nan nan nan nan nan nan nan nan nan nan nan nan nan nan
301 296 296 302 312 308 300 304 306 314 318 323 331 334 329 317 324 321 308 304 306 301 296 275 242 247 249 245 224 239 250 257 263 265 288 287 287 289 296 300 288 277 276 283 282 277 274 268 269 271 266 260 259 262 263 260 265 265 268 263 264 263 261 260 nan nan nan nan nan nan nan nan nan nan nan nan nan nan nan nan nan nan nan nan nan
293 291 295 293 296 297 304 304 306 307 313 319 322 320 311 311 290 285 284 289 286 288 287 278 272 260 253 249 247 258 271 292 292 291 279 283 286 294 303 311 293 288 285 277 274 283 280 276 272 266 257 255 258 256 254 256 260 258 263 260 269 268 268 267 267 266 nan nan nan nan nan nan nan nan nan nan nan nan nan nan nan nan nan nan nan
285 288 290 298 300 293 293 299 297 303 304 311 307 306 303 291 299 294 298 302 287 281 273 270 269 263 262 258 255 271 273 266 267 283 287 281 293 300 304 300 291 291 294 282 275 275 277 283 281 273 265 257 256 255 251 254 260 261 257 261 263 265 267 267 271 271 270 267 nan nan nan nan nan nan nan nan nan nan nan nan nan nan nan nan nan
280 278 285 289 286 288 295 298 298 294 296 299 298 286 285 288 276 279 287 290 286 271 269 265 261 262 268 266 262 255 263 274 277 272 285 294 295 297 296 291 288 292 292 287 279 277 276 276 275 267 260 256 250 250 252 250 246 249 259 258 262 263 271 270 269 279 277 272 273 271 nan nan nan nan nan nan nan nan nan nan nan nan nan nan nan
281 286 282 284 289 293 297 304 299 299 292 289 281 288 291 291 292 278 281 273 274 266 269 273 269 271 277 274 265 272 276 282 284 289 291 300 297 297 301 293 283 281 283 280 278 276 267 267 254 248 245 245 237 233 232 232 242 249 245 247 251 252 267 267 254 283 283 280 274 275 nan nan nan nan nan nan nan nan nan nan nan nan nan nan nan
281 278 282 283 284 296 301 298 285 288 288 281 282 281 283 286 285 292 287 277 261 263 263 259 268 271 268 271 279 280 277 281 284 293 296 292 289 295 296 294 292 288 281 277 278 278 269 260 257 254 255 265 267 268 266 264 251 248 255 252 252 249 245 249 252 251 281 279 276 269 273 275 nan nan nan nan nan nan nan nan nan nan nan nan nan
282 284 288 290 287 279 277 284 295 293 294 292 287 282 279 281 274 275 275 271 276 276 265 262 269 278 289 281 278 274 276 277 281 286 295 300 303 301 281 278 280 278 275 270 268 267 266 267 275 293 297 289 292 291 286 272 261 257 255 252 252 254 252 248 248 257 260 265 258 260 270 277 279 nan nan nan nan nan nan nan nan nan nan nan nan
286 288 284 283 292 295 295 292 283 287 288 286 292 289 279 272 273 272 266 263 274 277 275 257 265 265 271 281 284 278 275 284 283 291 295 301 299 289 287 289 287 284 279 273 271 268 260 261 285 293 300 302 305 308 292 287 274 260 253 252 249 247 247 243 242 244 244 242 247 258 262 276 288 287 283 279 nan nan nan nan nan nan nan nan nan
nan nan 274 280 286 294 298 296 301 299 292 295 297 292 290 285 281 274 270 272 265 269 271 275 269 267 268 273 282 285 292 288 288 291 297 287 282 284 297 299 288 281 274 274 272 271 270 273 275 279 286 294 299 290 305 316 296 264 245 244 nan 243 241 238 235 249 252 263 271 267 264 270 287 291 287 283 279 275 nan nan nan nan nan nan nan
nan nan 275 275 275 277 287 289 287 291 303 308 307 299 296 295 288 282 278 270 273 263 267 268 278 276 275 288 288 284 273 286 289 283 288 291 289 294 297 300 297 289 284 282 280 277 283 279 276 279 281 288 293 294 290 287 273 259 nan nan nan nan nan nan 240 250 256 257 255 253 260 271 276 279 285 282 280 278 282 nan nan nan nan nan nan
nan nan 272 273 273 273 268 279 279 280 271 274 283 302 311 295 286 286 279 277 278 276 268 272 279 291 294 293 275 278 287 292 287 284 279 272 282 290 294 296 289 286 285 280 275 275 275 286 287 285 282 281 282 283 nan 281 279 nan 279 nan 258 nan nan nan 250 250 251 253 263 271 274 277 275 274 276 282 283 287 293 nan nan nan 285 275 265
273 275 274 273 272 268 266 273 288 285 287 287 286 278 281 288 299 296 290 290 289 285 284 279 280 285 291 291 282 292 278 287 287 293 291 284 283 285 286 286 287 289 288 288 288 286 281 282 282 284 283 283 284 287 290 289 nan nan nan 272 272 269 263 256 252 253 254 254 263 284 288 272 267 264 265 273 286 296 299 297 297 298 296 289 275
283 281 279 278 278 279 277 268 273 289 288 284 280 276 276 276 281 286 295 289 286 284 284 284 286 283 288 288 286 278 284 284 286 294 293 290 283 278 274 280 287 291 292 290 289 289 289 285 284 281 281 284 287 288 nan nan nan nan nan nan nan nan 265 261 253 250 248 256 259 260 259 259 263 271 272 266 264 264 269 284 294 294 292 289 281
nan 274 279 nan nan 281 271 265 nan 260 nan 279 280 283 282 283 286 287 284 285 284 284 286 287 286 289 288 285 291 291 290 284 284 277 283 289 285 nan nan 282 282 284 288 291 290 291 291 289 nan nan 283 nan nan nan nan nan nan nan nan nan nan 264 261 260 255 248 245 252 260 258 258 258 254 263 271 271 273 275 264 254 257 264 264 261 281
262 266 271 nan 271 274 nan nan nan nan nan nan 289 286 285 287 285 283 282 281 280 275 277 282 279 286 291 289 288 296 293 289 284 287 289 280 291 nan nan nan nan 292 293 293 294 295 297 nan nan nan nan nan nan nan nan nan nan nan nan 265 264 264 263 262 259 254 253 253 253 254 254 252 254 261 270 274 271 272 268 261 253 253 268 273 262
270 269 nan nan nan nan nan nan nan 266 270 nan nan nan 284 284 285 284 283 283 281 278 273 278 286 283 281 286 292 301 300 291 298 298 293 291 290 292 nan nan nan 298 nan nan nan nan nan nan nan nan nan nan nan nan nan nan nan nan nan nan nan nan nan nan nan nan nan nan nan 257 258 256 254 256 259 256 256 255 256 257 253 251 250 250 248
265 nan nan nan nan nan nan 268 266 270 nan nan nan nan nan nan nan 284 283 283 283 282 284 286 285 287 287 287 287 293 295 295 295 292 290 292 nan nan nan nan nan nan nan nan nan nan nan nan nan nan nan nan nan nan nan nan nan nan nan nan nan nan nan nan nan nan nan nan nan nan nan nan nan nan nan nan nan nan nan nan nan nan nan nan nan
nan nan 274 271 270 271 275 272 nan nan 269 nan nan nan nan nan nan nan nan 282 279 279 276 275 284 290 293 293 295 296 288 283 288 290 285 283 288 296 nan nan nan nan nan nan nan nan nan nan nan nan nan nan nan nan nan nan nan nan nan nan nan nan nan nan nan nan nan nan nan nan nan nan nan nan nan nan nan nan nan nan nan nan nan nan nan
nan nan nan nan nan nan nan nan nan nan nan nan nan nan nan nan nan nan nan nan nan nan nan nan nan nan nan nan 287 292 294 296 294 293 299 295 305 nan nan nan nan nan nan nan nan nan nan nan nan nan nan nan nan nan nan nan nan nan nan nan nan nan nan nan nan nan nan nan nan nan nan nan nan nan nan nan nan nan nan nan nan nan nan nan nan
nan nan nan nan nan nan nan nan nan nan nan nan nan nan nan nan nan nan nan nan nan nan nan nan nan nan nan nan nan nan nan 295 297 295 296 305 nan nan nan nan nan nan nan nan nan nan nan nan nan nan nan nan nan nan nan nan nan nan nan nan nan nan nan nan nan nan nan nan nan nan nan nan nan nan nan nan nan nan nan nan nan nan nan nan nan
nan nan nan nan nan nan nan nan nan nan nan nan nan nan nan nan nan nan nan nan nan nan nan nan nan nan nan nan nan nan nan nan nan 285 nan nan nan 304 nan nan nan nan nan nan nan nan nan nan nan nan nan nan nan nan nan nan nan nan nan nan nan nan nan nan nan nan nan nan nan nan nan nan nan nan nan nan nan nan nan nan nan nan nan nan nan
nan nan nan nan nan nan nan nan nan nan nan nan nan nan nan nan nan nan nan nan nan nan nan nan nan nan nan nan nan nan nan nan nan nan nan 288 nan 292 295 nan 292 nan nan nan nan nan nan nan nan nan nan nan nan nan nan nan nan nan nan nan nan nan nan nan nan nan nan nan nan nan nan nan nan nan nan nan nan nan nan nan nan nan nan nan nan
nan nan nan nan nan nan nan nan nan nan nan nan nan nan nan nan nan nan nan nan nan nan nan nan nan nan nan nan nan nan nan nan nan nan nan nan nan nan nan nan nan nan nan nan nan nan nan nan nan nan nan nan nan nan nan nan nan nan nan nan nan nan nan nan nan nan nan nan nan nan nan nan nan nan nan nan nan nan nan nan nan nan nan nan nan
nan nan nan nan nan nan nan nan nan nan nan nan nan nan nan nan nan nan nan nan nan nan nan nan nan nan nan nan nan nan nan nan nan nan nan nan 286 nan nan nan nan nan nan nan nan nan nan nan nan nan nan nan nan nan nan nan nan nan nan nan nan nan nan nan nan nan nan nan nan nan nan nan nan nan nan nan nan nan nan nan nan nan nan nan nan
252 nan nan nan nan nan nan nan nan nan nan nan nan nan nan nan nan nan nan nan nan nan nan nan nan nan nan nan nan nan nan nan nan nan nan nan nan nan nan nan nan nan nan nan nan nan nan nan nan nan nan nan nan nan nan nan nan nan nan nan nan nan nan nan nan nan nan nan nan nan nan nan nan nan nan nan nan nan nan nan nan nan nan nan nan
252 nan nan nan nan nan nan nan nan nan nan nan nan nan nan nan nan nan nan nan nan nan nan nan nan nan nan nan nan nan nan nan nan nan nan nan nan nan nan nan nan nan nan nan nan nan nan nan nan nan nan nan nan nan nan nan nan nan nan nan nan nan nan nan nan nan nan nan nan nan nan nan nan nan nan nan nan nan nan nan nan nan nan nan nan
nan nan nan nan nan nan nan nan nan nan nan nan nan nan nan nan nan nan nan nan nan nan nan nan nan nan nan nan nan nan nan nan nan nan nan nan nan nan nan nan nan nan nan nan nan nan nan nan nan nan nan nan nan nan nan nan nan nan nan nan nan nan nan nan nan nan nan nan nan nan nan nan nan nan nan nan nan nan nan nan nan nan nan nan nan
nan nan nan nan nan nan nan nan nan nan nan nan 273 nan nan nan nan nan nan nan nan nan nan nan nan nan nan nan nan nan nan nan nan nan nan nan nan nan nan nan nan nan nan nan nan nan nan nan nan nan nan nan nan nan nan nan nan nan nan nan nan nan nan nan nan nan nan nan nan nan nan nan nan nan nan nan nan nan nan nan nan nan nan nan nan
nan nan nan nan nan nan nan nan nan nan nan 271 269 nan nan nan nan nan nan nan nan nan nan nan nan nan nan nan nan nan nan nan nan nan nan nan nan nan nan nan nan nan nan nan nan nan nan nan nan nan nan nan nan nan nan nan nan nan nan nan nan nan nan nan nan nan nan nan nan nan nan nan nan nan nan nan nan nan nan nan nan nan nan nan nan
nan nan nan nan nan nan 272 nan nan nan nan nan 270 268 268 270 275 276 nan nan 279 275 nan nan nan nan nan nan nan nan nan nan nan nan nan nan nan nan nan nan nan nan nan nan nan nan nan nan nan nan nan nan nan nan nan nan nan nan nan nan nan nan nan nan nan nan nan nan nan nan nan nan nan nan nan nan nan nan nan nan nan nan nan nan nan
261 264 nan nan nan nan nan nan nan nan nan 274 275 274 272 270 272 277 278 277 278 277 272 267 nan nan nan nan 270 nan nan nan nan nan nan nan nan nan nan nan nan nan nan nan nan nan nan nan nan nan nan nan nan nan nan nan nan nan nan nan nan nan nan nan nan nan nan nan nan nan nan nan nan nan nan nan nan nan nan nan nan nan nan nan nan
257 260 264 265 268 270 nan nan nan nan nan 273 274 277 276 276 269 270 268 271 272 268 268 265 264 266 266 268 270 269 nan nan 269 nan nan nan nan nan nan nan nan nan nan nan nan nan nan nan nan nan nan nan nan nan nan nan nan nan nan nan nan nan nan nan nan nan nan nan nan nan nan nan nan nan nan nan nan nan nan nan nan nan nan nan nan
258 262 264 267 269 263 264 263 258 256 255 252 247 246 260 261 269 267 268 268 271 270 263 260 260 257 259 256 263 269 270 270 270 272 nan nan nan nan nan nan nan nan nan nan nan nan nan nan nan nan nan nan nan nan nan nan nan nan nan nan nan nan nan nan nan nan nan nan nan nan nan nan nan nan nan nan nan nan nan nan nan nan nan nan nan
260 267 268 268 269 271 265 264 256 255 258 264 nan nan nan 291 274 268 267 264 254 253 247 249 255 nan nan nan nan nan 251 nan nan 265 264 264 267 267 nan nan nan nan nan nan nan nan nan nan nan nan nan nan nan nan nan nan nan nan nan nan nan nan nan nan nan nan nan nan nan nan nan nan nan nan nan nan nan nan nan nan nan nan nan nan nan
246 249 255 257 262 265 263 259 259 256 257 264 266 258 267 276 273 272 266 253 256 nan nan 259 257 263 265 269 274 nan nan 254 263 nan nan nan nan nan nan nan nan nan nan nan nan nan nan nan nan nan nan nan nan nan nan nan nan nan nan nan nan nan nan nan nan nan nan nan nan nan nan nan nan nan nan nan nan nan nan nan nan nan nan nan nan
252 259 261 261 263 264 nan 265 265 nan nan 266 264 262 263 266 269 269 273 275 279 282 274 270 270 272 278 278 280 285 286 288 285 281 nan nan nan nan nan nan nan nan nan nan nan nan nan nan nan nan nan nan nan nan nan nan nan nan nan nan nan nan nan nan nan nan nan nan nan nan nan nan nan nan nan nan nan nan nan nan nan nan nan nan nan
261 263 264 264 263 266 272 275 278 281 nan nan nan nan nan 267 268 269 266 269 271 273 277 276 274 274 278 282 284 285 286 291 289 286 nan nan nan nan nan nan nan nan nan nan nan nan nan nan nan nan nan nan nan nan nan nan nan nan nan nan nan nan nan nan nan nan nan nan nan nan nan nan nan nan nan nan nan nan nan nan nan nan nan nan nan
268 266 264 265 266 268 272 275 280 281 280 287 287 nan nan nan 266 266 nan 271 275 276 275 nan 276 277 278 nan 282 283 287 293 286 nan nan nan nan nan nan nan nan nan nan nan nan nan nan nan nan nan nan nan nan nan nan nan nan nan nan nan nan nan nan nan nan nan nan nan nan nan nan nan nan nan nan nan nan nan nan nan nan nan nan nan nan
271 270 270 270 272 274 275 279 281 279 nan nan nan nan nan 269 266 nan nan 272 275 275 276 276 278 280 281 nan nan 284 285 284 282 279 280 nan nan nan nan nan nan nan nan nan nan nan nan nan nan nan nan nan nan nan nan nan nan nan nan nan nan nan nan nan nan nan nan nan nan nan nan nan nan nan nan nan nan nan nan nan nan nan nan nan nan
275 275 274 275 275 275 275 277 276 270 271 nan nan 277 275 271 270 nan nan 272 274 275 277 279 280 281 282 281 nan 284 283 280 274 270 270 nan nan nan nan nan nan nan nan nan nan nan nan nan nan nan nan nan nan nan nan nan nan nan nan nan nan nan nan nan nan nan nan nan nan nan nan nan nan nan nan nan nan nan nan nan nan nan nan nan nan
274 273 274 274 276 277 278 277 275 277 278 279 276 275 274 nan 274 274 nan 277 276 276 276 281 283 282 282 281 nan 279 277 278 274 271 nan nan 277 280 nan nan nan nan nan nan nan nan nan nan nan nan nan nan nan nan nan nan nan nan nan nan nan nan nan nan nan nan nan nan nan nan nan nan nan nan nan nan nan nan nan nan nan nan nan nan nan
272 272 272 277 278 280 284 283 283 285 282 280 278 nan 273 274 272 272 277 281 282 281 282 280 nan nan nan nan 274 277 276 nan nan nan nan nan nan nan nan nan nan nan nan nan nan nan nan nan nan nan nan nan nan nan nan nan nan nan nan nan nan nan nan nan nan nan nan nan nan nan nan nan nan nan nan nan nan nan nan nan nan nan nan nan nan
268 269 272 274 278 282 284 283 284 282 280 282 nan nan 276 nan nan 275 281 285 nan 281 281 nan nan nan nan nan nan nan nan nan nan nan nan nan nan 279 nan nan nan nan nan nan nan nan nan nan nan nan nan nan nan nan nan nan nan nan nan nan nan nan nan nan nan nan nan nan nan nan nan nan nan nan nan nan nan nan nan nan nan nan nan nan nan
264 265 270 273 277 281 283 283 287 287 nan nan nan nan nan nan nan nan nan 282 283 nan 284 nan nan nan nan nan nan nan nan nan nan nan nan nan nan nan nan nan nan nan nan nan nan nan nan nan nan nan nan nan nan nan nan nan nan nan nan nan nan nan nan nan nan nan nan nan nan nan nan nan nan nan nan nan nan nan nan nan nan nan nan nan nan